Hourly Weather Roundup
Issued by NWS Central Illinois

Home | Current Version | Previous Version | Text Only | Print | Product List | Glossary On
Versions: 1 2 3 4 5 6 7 8 9 10 11 12 13 14 15 16 17 18 19 20 21 22 23 24 25 26 27 28 29 30 31 32 33 34 35 36 37 38 39 40 41 42 43 44 45 46 47 48 49 50
000
NZUS43 KILX 300010
HWRILX

AREA WEATHER ROUNDUP
NATIONAL WEATHER SERVICE, LINCOLN IL
700 PM CDT TUE JUL 29 2014


CITY           SKY/WX    TMP DP  RH WIND       PRES   REMARKS
BLOOMINGTON    MOSUNNY   74  55  51 W9        30.06S
CHAMPAIGN      SUNNY     73  59  61 W10       30.05F
6HR MIN TEMP:  73; 6HR MAX TEMP:  77;

DECATUR        SUNNY     75  55  49 W9        30.06F
6HR MIN TEMP:  75; 6HR MAX TEMP:  79;

FLORA          SUNNY     75  52  44 W7        30.07S
6HR MIN TEMP:  74; 6HR MAX TEMP:  78;

GALESBURG      SUNNY     76  59  56 W5        30.06S
JACKSONVILLE   SUNNY     75  61  60 W5        30.08F
6HR MIN TEMP:  75; 6HR MAX TEMP:  79;

LACON          SUNNY     76  55  48 W6        30.03S
6HR MIN TEMP:  76; 6HR MAX TEMP:  79;

LAWRENCEVILLE  NOT AVBL
LITCHFIELD     SUNNY     74  58  57 NW5       30.08S
$$


CITY           SKY/WX    TMP DP  RH WIND       PRES   REMARKS
LINCOLN        SUNNY     77  56  47 W3        30.03S
6HR MIN TEMP:  77; 6HR MAX TEMP:  81;

MACOMB         SUNNY     74  60  61 W7        30.08F
MATTOON        SUNNY     72  56  57 W8        30.05F
6HR MIN TEMP:  72; 6HR MAX TEMP:  77;

MT CARMEL AP   SUNNY     75  59  57 W3        30.06S
OLNEY-NOBLE AP SUNNY     72  59  64 CALM      30.06F
PARIS          SUNNY     73  59  62 W6        30.05S
6HR MIN TEMP:  73; 6HR MAX TEMP:  78;

PEORIA         SUNNY     78  57  48 W8        30.05S
6HR MIN TEMP:  78; 6HR MAX TEMP:  82;

PONTIAC        PTSUNNY   70  61  73 NE6       30.04S
RANTOUL        SUNNY     74  58  55 W7        30.05S
6HR MIN TEMP:  74; 6HR MAX TEMP:  78;

ROBINSON       SUNNY     75  58  56 W7        30.06F
6HR MIN TEMP:  75; 6HR MAX TEMP:  79;

SPRINGFIELD    SUNNY     76  59  55 W6        30.07F
6HR MIN TEMP:  76; 6HR MAX TEMP:  80;

TAYLORVILLE    SUNNY     72  57  60 W5        30.07S
$$

...REGIONAL REPORTS...


CITY           SKY/WX    TMP DP  RH WIND       PRES   REMARKS
CHICAGO O`HARE MOSUNNY   75  55  49 W13       29.98S
KANKAKEE       PTSUNNY   68  56  64 W7        30.03F
MOLINE         SUNNY     77  56  48 W10       30.03F
MOUNT VERNON   SUNNY     75  57  53 CALM      30.08F
PITTSFIELD     SUNNY     76  56  50 CALM      30.09S
QUINCY         SUNNY     75  55  49 NW5       30.08F
ROCKFORD       PTSUNNY   75  56  51 NW14      30.02S
$$


CITY           SKY/WX    TMP DP  RH WIND       PRES   REMARKS
BURLINGTON     SUNNY     75  59  57 NW7       30.06F
CEDAR RAPIDS   MOSUNNY   74  58  57 W8        30.05F
DES MOINES     MOSUNNY   78  52  40 NW7       30.08F
KIRKSVILLE     SUNNY     78  56  46 NW3       30.10F
OTTUMWA        SUNNY     75  57  53 NW7       30.08F
ST LOUIS       MOSUNNY   78  56  46 N8        30.08F
$$


CITY           SKY/WX    TMP DP  RH WIND       PRES   REMARKS
TERRE HAUTE    SUNNY     74  55  51 W8        30.04F
EVANSVILLE     SUNNY     76  54  46 NW6       30.07F
INDIANAPOLIS   PTSUNNY   63  59  87 N21       30.05R THUNDER
LAFAYETTE      CLOUDY    65  63  93 CALM      30.02F
MADISON        LGT RAIN  66  57  72 VRB7G20   30.00S
MILWAUKEE      PTSUNNY   76  52  43 NW10      29.97F
$$





USA.gov is the U.S. government's official web portal to all federal, state and local government web resources and services.